Year,Month,Day,Hour,Minute,Value (Times are PST for temperature in C)
2006,09,25,00,04,12.40
2006,09,25,00,05,12.40
2006,09,25,00,06,12.40
2006,09,25,00,07,12.40
2006,09,25,00,08,12.40
2006,09,25,00,09,12.40
2006,09,25,00,10,12.40
2006,09,25,00,11,12.40
2006,09,25,00,12,12.40
2006,09,25,00,13,12.40
2006,09,25,00,14,12.40
2006,09,25,00,16,12.40
2006,09,25,00,17,12.40
2006,09,25,00,19,12.40
2006,09,25,00,20,12.40
2006,09,25,00,21,12.40
2006,09,25,00,22,12.40
2006,09,25,00,23,12.40
2006,09,25,00,24,12.40
2006,09,25,00,25,12.40
2006,09,25,00,26,12.40
2006,09,25,00,27,12.40
2006,09,25,00,28,12.60
2006,09,25,00,29,12.60
2006,09,25,00,30,12.60
2006,09,25,00,31,12.60
2006,09,25,00,32,12.60
2006,09,25,00,33,12.60
2006,09,25,00,34,12.60
2006,09,25,00,36,12.60
2006,09,25,00,37,12.60
2006,09,25,00,38,12.60
2006,09,25,00,39,12.60
2006,09,25,00,40,12.60
2006,09,25,00,41,12.60
2006,09,25,00,42,12.60
2006,09,25,00,43,12.60
2006,09,25,00,44,12.60
2006,09,25,00,45,12.60
2006,09,25,00,46,12.60
2006,09,25,00,47,12.60
2006,09,25,00,48,12.60
2006,09,25,00,49,12.60
2006,09,25,00,50,12.60
2006,09,25,00,51,12.60
2006,09,25,00,52,12.60
2006,09,25,00,53,12.60
2006,09,25,00,54,12.60
2006,09,25,00,55,12.60
2006,09,25,00,56,12.60
2006,09,25,00,57,12.60
2006,09,25,00,58,12.60
2006,09,25,00,59,12.60
2006,09,25,01,00,12.60
2006,09,25,01,01,12.60
2006,09,25,01,02,12.60
2006,09,25,01,03,11.80
2006,09,25,01,04,11.80
2006,09,25,01,05,11.80
2006,09,25,01,06,11.80
2006,09,25,01,07,11.80
2006,09,25,01,08,11.80
2006,09,25,01,09,11.80
2006,09,25,01,10,11.80
2006,09,25,01,11,11.80
2006,09,25,01,12,11.60
2006,09,25,01,13,11.60
2006,09,25,01,14,11.60
2006,09,25,01,15,11.60
2006,09,25,01,16,11.60
2006,09,25,01,17,11.60
2006,09,25,01,18,11.60
2006,09,25,01,19,11.60
2006,09,25,01,20,11.60
2006,09,25,01,21,11.60
2006,09,25,01,22,11.60
2006,09,25,01,23,11.60
2006,09,25,01,24,11.60
2006,09,25,01,25,11.60
2006,09,25,01,26,11.60
2006,09,25,01,27,11.60
2006,09,25,01,28,11.60
2006,09,25,01,29,11.60
2006,09,25,01,30,11.60
2006,09,25,01,31,11.60
2006,09,25,01,32,11.60
2006,09,25,01,33,11.60
2006,09,25,01,34,11.30
2006,09,25,01,35,11.30
2006,09,25,01,36,11.30
2006,09,25,01,37,11.30
2006,09,25,01,38,11.30
2006,09,25,01,39,11.30
2006,09,25,01,40,11.30
2006,09,25,01,41,11.30
2006,09,25,01,42,11.30
2006,09,25,01,43,11.30
2006,09,25,01,44,11.30
2006,09,25,01,46,11.30
2006,09,25,01,47,11.40
2006,09,25,01,48,11.40
2006,09,25,01,49,11.40
2006,09,25,01,50,11.40
2006,09,25,01,51,11.40
2006,09,25,01,52,11.40
2006,09,25,01,53,11.40
2006,09,25,01,54,11.40
2006,09,25,01,55,11.40
2006,09,25,01,56,11.50
2006,09,25,01,57,11.50
2006,09,25,01,58,11.50
2006,09,25,01,59,11.50
2006,09,25,02,00,11.50
2006,09,25,02,01,11.50
2006,09,25,02,02,11.50
2006,09,25,02,03,11.50
2006,09,25,02,04,11.50
2006,09,25,02,06,11.50
2006,09,25,02,07,11.50
2006,09,25,02,08,11.50
2006,09,25,02,09,11.50
2006,09,25,02,10,11.50
2006,09,25,02,11,11.50
2006,09,25,02,12,11.50
2006,09,25,02,13,11.50
2006,09,25,02,14,11.50
2006,09,25,02,15,11.50
2006,09,25,02,16,11.50
2006,09,25,02,17,11.50
2006,09,25,02,19,11.40
2006,09,25,02,20,11.40
2006,09,25,02,22,11.40
2006,09,25,02,23,11.40
2006,09,25,02,24,11.40
2006,09,25,02,25,11.40
2006,09,25,02,26,11.40
2006,09,25,02,27,11.40
2006,09,25,02,28,11.40
2006,09,25,02,29,11.40
2006,09,25,02,30,11.40
2006,09,25,02,32,11.30
2006,09,25,02,33,11.30
2006,09,25,02,34,11.30
2006,09,25,02,35,11.30
2006,09,25,02,36,11.30
2006,09,25,02,37,11.30
2006,09,25,02,39,11.30
2006,09,25,02,40,11.30
2006,09,25,02,41,11.40
2006,09,25,02,42,11.40
2006,09,25,02,43,11.40
2006,09,25,02,44,11.40
2006,09,25,02,45,11.40
2006,09,25,02,46,11.40
2006,09,25,02,48,11.40
2006,09,25,02,50,11.40
2006,09,25,02,51,11.40
2006,09,25,02,52,11.40
2006,09,25,02,53,11.40
2006,09,25,02,54,11.40
2006,09,25,02,55,11.40
2006,09,25,02,57,11.40
2006,09,25,02,58,11.40
2006,09,25,02,59,11.40
2006,09,25,03,00,11.40
2006,09,25,03,01,11.40
2006,09,25,03,02,11.40
2006,09,25,03,04,11.40
2006,09,25,03,05,11.40
2006,09,25,03,06,11.40
2006,09,25,03,07,11.40
2006,09,25,03,08,11.40
2006,09,25,03,09,11.40
2006,09,25,03,10,11.40
2006,09,25,03,11,11.40
2006,09,25,03,12,11.40
2006,09,25,03,13,11.40
2006,09,25,03,14,11.40
2006,09,25,03,15,11.40
2006,09,25,03,16,11.40
2006,09,25,03,17,11.40
2006,09,25,03,18,11.40
2006,09,25,03,19,11.40
2006,09,25,03,20,11.40
2006,09,25,03,21,11.40
2006,09,25,03,22,11.40
2006,09,25,03,23,11.40
2006,09,25,03,25,11.40
2006,09,25,03,26,11.50
2006,09,25,03,27,11.50
2006,09,25,03,28,11.50
2006,09,25,03,29,11.50
2006,09,25,03,30,11.50
2006,09,25,03,31,11.50
2006,09,25,03,32,11.50
2006,09,25,03,33,11.50
2006,09,25,03,34,11.50
2006,09,25,03,35,11.50
2006,09,25,03,36,11.50
2006,09,25,03,37,11.50
2006,09,25,03,38,11.50
2006,09,25,03,39,11.50
2006,09,25,03,40,11.50
2006,09,25,03,41,11.50
2006,09,25,03,42,11.50
2006,09,25,03,44,11.50
2006,09,25,03,45,11.50
2006,09,25,03,46,11.50
2006,09,25,03,47,11.50
2006,09,25,03,48,11.40
2006,09,25,03,49,11.40
2006,09,25,03,50,11.40
2006,09,25,03,51,11.40
2006,09,25,03,52,11.40
2006,09,25,03,53,11.40
2006,09,25,03,54,11.40
2006,09,25,03,55,11.40
2006,09,25,03,56,11.40
2006,09,25,03,57,11.40
2006,09,25,03,58,11.40
2006,09,25,03,59,11.40
2006,09,25,04,00,11.40
2006,09,25,04,01,11.50
2006,09,25,04,02,11.50
2006,09,25,04,04,11.50
2006,09,25,04,05,11.50
2006,09,25,04,06,11.50
2006,09,25,04,07,11.50
2006,09,25,04,08,11.50
2006,09,25,04,09,11.50
2006,09,25,04,10,11.60
2006,09,25,04,11,11.60
2006,09,25,04,12,11.60
2006,09,25,04,13,11.60
2006,09,25,04,14,11.60
2006,09,25,04,15,11.60
2006,09,25,04,16,11.60
2006,09,25,04,17,11.60
2006,09,25,04,18,11.60
2006,09,25,04,19,11.60
2006,09,25,04,20,11.60
2006,09,25,04,21,11.60
2006,09,25,04,22,11.60
2006,09,25,04,23,11.60
2006,09,25,04,24,11.60
2006,09,25,04,25,11.60
2006,09,25,04,26,11.60
2006,09,25,04,27,11.60
2006,09,25,04,28,11.60
2006,09,25,04,29,11.60
2006,09,25,04,30,11.60
2006,09,25,04,31,11.60
2006,09,25,04,32,11.30
2006,09,25,04,33,11.30
2006,09,25,04,34,11.30
2006,09,25,04,35,11.30
2006,09,25,04,36,11.30
2006,09,25,04,37,11.30
2006,09,25,04,38,11.30
2006,09,25,04,39,11.30
2006,09,25,04,40,11.30
2006,09,25,04,41,11.30
2006,09,25,04,42,11.30
2006,09,25,04,43,11.30
2006,09,25,04,44,11.30
2006,09,25,04,45,11.30
2006,09,25,04,46,11.30
2006,09,25,04,47,11.30
2006,09,25,04,48,11.30
2006,09,25,04,49,11.30
2006,09,25,04,50,11.30
2006,09,25,04,51,11.30
2006,09,25,04,52,11.30
2006,09,25,04,53,11.30
2006,09,25,04,54,11.30
2006,09,25,04,55,11.30
2006,09,25,04,56,11.30
2006,09,25,04,57,11.30
2006,09,25,04,58,11.30
2006,09,25,04,59,11.30
2006,09,25,05,00,11.30
2006,09,25,05,01,11.30
2006,09,25,05,02,11.30
2006,09,25,05,03,11.30
2006,09,25,05,04,11.30
2006,09,25,05,05,11.30
2006,09,25,05,06,11.30
2006,09,25,05,07,11.30
2006,09,25,05,08,11.30
2006,09,25,05,09,11.30
2006,09,25,05,10,11.30
2006,09,25,05,11,11.30
2006,09,25,05,12,11.30
2006,09,25,05,13,11.30
2006,09,25,05,14,11.30
2006,09,25,05,15,11.30
2006,09,25,05,16,11.30
2006,09,25,05,17,11.00
2006,09,25,05,18,11.00
2006,09,25,05,19,11.00
2006,09,25,05,20,11.00
2006,09,25,05,21,11.00
2006,09,25,05,22,11.00
2006,09,25,05,23,11.00
2006,09,25,05,24,11.00
2006,09,25,05,25,11.00
2006,09,25,05,26,11.00
2006,09,25,05,27,11.00
2006,09,25,05,28,11.00
2006,09,25,05,29,11.00
2006,09,25,05,30,11.00
2006,09,25,05,31,11.20
2006,09,25,05,32,11.20
2006,09,25,05,33,11.20
2006,09,25,05,35,11.20
2006,09,25,05,36,11.20
2006,09,25,05,37,11.20
2006,09,25,05,38,11.20
2006,09,25,05,39,11.20
2006,09,25,05,40,11.20
2006,09,25,05,41,11.10
2006,09,25,05,42,11.10
2006,09,25,05,43,11.10
2006,09,25,05,44,11.10
2006,09,25,05,45,11.10
2006,09,25,05,46,11.10
2006,09,25,05,47,11.10
2006,09,25,05,48,11.10
2006,09,25,05,49,11.10
2006,09,25,05,50,11.10
2006,09,25,05,51,11.10
2006,09,25,05,52,11.10
2006,09,25,05,53,11.10
2006,09,25,05,54,11.10
2006,09,25,05,55,11.10
2006,09,25,05,56,11.10
2006,09,25,05,57,11.10
2006,09,25,05,58,11.10
2006,09,25,06,00,11.10
2006,09,25,06,01,11.10
2006,09,25,06,02,11.10
2006,09,25,06,03,11.10
2006,09,25,06,04,11.10
2006,09,25,06,05,11.10
2006,09,25,06,06,11.10
2006,09,25,06,07,11.10
2006,09,25,06,08,11.10
2006,09,25,06,09,11.10
2006,09,25,06,11,11.10
2006,09,25,06,12,11.10
2006,09,25,06,13,11.10
2006,09,25,06,14,11.10
2006,09,25,06,15,11.10
2006,09,25,06,16,11.00
2006,09,25,06,17,11.00
2006,09,25,06,18,11.00
2006,09,25,06,19,11.00
2006,09,25,06,20,11.00
2006,09,25,06,21,11.00
2006,09,25,06,22,11.00
2006,09,25,06,23,11.00
2006,09,25,06,24,11.00
2006,09,25,06,25,11.00
2006,09,25,06,26,11.00
2006,09,25,06,27,11.00
2006,09,25,06,28,11.00
2006,09,25,06,29,11.00
2006,09,25,06,30,11.00
2006,09,25,06,31,11.00
2006,09,25,06,32,11.00
2006,09,25,06,33,11.00
2006,09,25,06,34,11.00
2006,09,25,06,35,11.00
2006,09,25,06,36,11.00
2006,09,25,06,37,11.00
2006,09,25,06,38,11.00
2006,09,25,06,39,11.00
2006,09,25,06,40,11.00
2006,09,25,06,41,11.00
2006,09,25,06,42,11.00
2006,09,25,06,43,11.00
2006,09,25,06,44,11.00
2006,09,25,06,45,11.00
2006,09,25,06,46,11.00
2006,09,25,06,47,11.00
2006,09,25,06,48,11.00
2006,09,25,06,49,11.00
2006,09,25,06,50,10.70
2006,09,25,06,51,10.70
2006,09,25,06,52,10.70
2006,09,25,06,53,10.70
2006,09,25,06,54,10.70
2006,09,25,06,55,10.70
2006,09,25,06,56,10.70
2006,09,25,06,57,10.70
2006,09,25,06,58,10.70
2006,09,25,06,59,10.70
2006,09,25,07,01,10.70
2006,09,25,07,02,10.70
2006,09,25,07,03,10.90
2006,09,25,07,04,10.90
2006,09,25,07,05,10.90
2006,09,25,07,07,10.90
2006,09,25,07,08,10.90
2006,09,25,07,09,10.90
2006,09,25,07,10,10.90
2006,09,25,07,11,10.90
2006,09,25,07,12,10.90
2006,09,25,07,13,10.60
2006,09,25,07,15,10.60
2006,09,25,07,17,10.60
2006,09,25,07,18,10.60
2006,09,25,07,19,10.60
2006,09,25,07,21,10.60
2006,09,25,07,22,10.60
2006,09,25,07,23,10.60
2006,09,25,07,24,10.60
2006,09,25,07,25,10.60
2006,09,25,07,26,10.60
2006,09,25,07,27,10.60
2006,09,25,07,28,10.60
2006,09,25,07,29,10.60
2006,09,25,07,30,10.60
2006,09,25,07,31,10.60
2006,09,25,07,32,10.60
2006,09,25,07,33,10.60
2006,09,25,07,34,10.60
2006,09,25,07,35,11.00
2006,09,25,07,36,11.00
2006,09,25,07,37,11.00
2006,09,25,07,38,11.00
2006,09,25,07,39,11.00
2006,09,25,07,40,11.00
2006,09,25,07,41,11.00
2006,09,25,07,42,11.00
2006,09,25,07,43,11.00
2006,09,25,07,44,11.00
2006,09,25,07,45,11.00
2006,09,25,07,46,11.00
2006,09,25,07,47,11.00
2006,09,25,07,48,11.00
2006,09,25,07,49,11.00
2006,09,25,07,50,11.00
2006,09,25,07,51,11.00
2006,09,25,07,52,11.00
2006,09,25,07,53,11.00
2006,09,25,07,54,11.00
2006,09,25,07,55,11.00
2006,09,25,07,56,11.00
2006,09,25,07,57,11.00
2006,09,25,07,58,11.20
2006,09,25,07,59,11.20
2006,09,25,08,00,11.20
2006,09,25,08,01,11.20
2006,09,25,08,02,11.20
2006,09,25,08,03,11.20
2006,09,25,08,04,11.20
2006,09,25,08,06,11.20
2006,09,25,08,07,11.20
2006,09,25,08,08,11.20
2006,09,25,08,09,11.20
2006,09,25,08,10,11.20
2006,09,25,08,11,11.20
2006,09,25,08,12,11.20
2006,09,25,08,13,11.20
2006,09,25,08,14,11.20
2006,09,25,08,15,11.20
2006,09,25,08,16,11.20
2006,09,25,08,17,11.20
2006,09,25,08,18,11.20
2006,09,25,08,19,11.20
2006,09,25,08,20,11.60
2006,09,25,08,21,11.60
2006,09,25,08,22,11.60
2006,09,25,08,23,11.60
2006,09,25,08,24,11.60
2006,09,25,08,25,11.60
2006,09,25,08,26,11.60
2006,09,25,08,27,11.60
2006,09,25,08,28,11.60
2006,09,25,08,29,11.60
2006,09,25,08,30,11.60
2006,09,25,08,31,11.60
2006,09,25,08,32,11.60
2006,09,25,08,33,11.50
2006,09,25,08,34,11.50
2006,09,25,08,35,11.50
2006,09,25,08,36,11.50
2006,09,25,08,37,11.50
2006,09,25,08,38,11.50
2006,09,25,08,39,11.50
2006,09,25,08,40,11.50
2006,09,25,08,41,11.50
2006,09,25,08,42,11.40
2006,09,25,08,43,11.40
2006,09,25,08,44,11.40
2006,09,25,08,45,11.40
2006,09,25,08,46,11.40
2006,09,25,08,47,11.40
2006,09,25,08,48,11.40
2006,09,25,08,49,11.40
2006,09,25,08,50,11.40
2006,09,25,08,51,11.40
2006,09,25,08,52,11.40
2006,09,25,08,53,11.40
2006,09,25,08,54,11.40
2006,09,25,08,55,11.40
2006,09,25,08,56,11.40
2006,09,25,08,57,11.40
2006,09,25,08,58,11.40
2006,09,25,08,59,11.40
2006,09,25,09,00,11.40
2006,09,25,09,01,11.40
2006,09,25,09,02,11.40
2006,09,25,09,04,11.40
2006,09,25,09,05,11.40
2006,09,25,09,07,11.40
2006,09,25,09,08,11.40
2006,09,25,09,09,11.40
2006,09,25,09,10,11.40
2006,09,25,09,11,11.40
2006,09,25,09,12,11.40
2006,09,25,09,13,11.40
2006,09,25,09,14,11.40
2006,09,25,09,15,11.40
2006,09,25,09,16,11.40
2006,09,25,09,17,11.40
2006,09,25,09,18,11.80
2006,09,25,09,19,11.80
2006,09,25,09,20,11.80
2006,09,25,09,21,11.80
2006,09,25,09,22,11.80
2006,09,25,09,23,11.80
2006,09,25,09,24,11.80
2006,09,25,09,25,11.80
2006,09,25,09,26,11.80
2006,09,25,09,27,11.80
2006,09,25,09,28,11.80
2006,09,25,09,29,12.10
2006,09,25,09,30,12.10
2006,09,25,09,31,12.10
2006,09,25,09,32,12.10
2006,09,25,09,33,12.10
2006,09,25,09,34,12.10
2006,09,25,09,35,12.10
2006,09,25,09,36,12.10
2006,09,25,09,37,12.10
2006,09,25,09,38,12.10
2006,09,25,09,39,12.10
2006,09,25,09,40,12.10
2006,09,25,09,41,12.10
2006,09,25,09,42,12.10
2006,09,25,09,43,12.10
2006,09,25,09,44,12.10
2006,09,25,09,45,12.10
2006,09,25,09,46,12.10
2006,09,25,09,47,12.10
2006,09,25,09,48,12.10
2006,09,25,09,49,12.10
2006,09,25,09,50,12.10
2006,09,25,09,51,12.60
2006,09,25,09,52,12.60
2006,09,25,09,53,12.60
2006,09,25,09,54,12.60
2006,09,25,09,55,12.60
2006,09,25,09,56,12.60
2006,09,25,09,57,12.60
2006,09,25,09,58,12.60
2006,09,25,10,00,12.60
2006,09,25,10,01,12.60
2006,09,25,10,02,12.60
2006,09,25,10,03,12.60
2006,09,25,10,04,12.90
2006,09,25,10,05,12.90
2006,09,25,10,06,12.90
2006,09,25,10,07,12.90
2006,09,25,10,08,12.90
2006,09,25,10,09,12.90
2006,09,25,10,10,12.90
2006,09,25,10,11,12.90
2006,09,25,10,12,12.90
2006,09,25,10,13,12.90
2006,09,25,10,14,12.90
2006,09,25,10,15,12.90
2006,09,25,10,16,12.90
2006,09,25,10,17,12.90
2006,09,25,10,18,12.90
2006,09,25,10,19,12.90
2006,09,25,10,20,12.90
2006,09,25,10,21,12.90
2006,09,25,10,22,12.90
2006,09,25,10,23,12.90
2006,09,25,10,24,12.90
2006,09,25,10,25,12.90
2006,09,25,10,26,12.90
2006,09,25,10,27,12.90
2006,09,25,10,28,12.90
2006,09,25,10,29,12.90
2006,09,25,10,30,12.90
2006,09,25,10,31,12.90
2006,09,25,10,32,12.90
2006,09,25,10,33,12.90
2006,09,25,10,34,12.90
2006,09,25,10,35,12.90
2006,09,25,10,36,12.90
2006,09,25,10,37,12.90
2006,09,25,10,38,12.90
2006,09,25,10,39,12.90
2006,09,25,10,40,12.90
2006,09,25,10,41,12.90
2006,09,25,10,42,12.90
2006,09,25,10,43,12.90
2006,09,25,10,44,13.10
2006,09,25,10,45,13.10
2006,09,25,10,46,13.10
2006,09,25,10,48,13.10
2006,09,25,10,49,13.10
2006,09,25,10,50,13.10
2006,09,25,10,51,13.10
2006,09,25,10,53,13.10
2006,09,25,10,54,13.40
2006,09,25,10,55,13.40
2006,09,25,10,56,13.40
2006,09,25,10,57,13.40
2006,09,25,10,58,13.40
2006,09,25,10,59,13.40
2006,09,25,11,00,13.40
2006,09,25,11,01,13.40
2006,09,25,11,02,13.40
2006,09,25,11,03,13.40
2006,09,25,11,04,13.40
2006,09,25,11,05,13.40
2006,09,25,11,06,13.40
2006,09,25,11,07,13.40
2006,09,25,11,08,13.40
2006,09,25,11,09,13.40
2006,09,25,11,10,13.40
2006,09,25,11,11,13.40
2006,09,25,11,12,13.40
2006,09,25,11,13,13.40
2006,09,25,11,14,13.40
2006,09,25,11,15,13.40
2006,09,25,11,16,13.80
2006,09,25,11,17,13.80
2006,09,25,11,18,13.80
2006,09,25,11,19,13.80
2006,09,25,11,20,13.80
2006,09,25,11,21,13.80
2006,09,25,11,22,13.80
2006,09,25,11,23,13.80
2006,09,25,11,24,13.80
2006,09,25,11,25,13.80
2006,09,25,11,26,13.80
2006,09,25,11,27,13.80
2006,09,25,11,28,13.80
2006,09,25,11,29,13.80
2006,09,25,11,30,13.80
2006,09,25,11,31,13.80
2006,09,25,11,32,13.80
2006,09,25,11,33,13.80
2006,09,25,11,34,13.80
2006,09,25,11,35,13.80
2006,09,25,11,37,13.80
2006,09,25,11,38,13.80
2006,09,25,11,39,13.60
2006,09,25,11,40,13.60
2006,09,25,11,41,13.60
2006,09,25,11,42,13.60
2006,09,25,11,43,13.60
2006,09,25,11,44,13.60
2006,09,25,11,45,13.60
2006,09,25,11,46,13.60
2006,09,25,11,47,13.60
2006,09,25,11,48,13.60
2006,09,25,11,49,13.60
2006,09,25,11,50,13.60
2006,09,25,11,51,13.60
2006,09,25,11,53,13.60
2006,09,25,11,54,13.60
2006,09,25,11,55,13.60
2006,09,25,11,56,13.60
2006,09,25,11,57,13.60
2006,09,25,11,58,13.60
2006,09,25,11,59,13.60
2006,09,25,12,00,13.60
2006,09,25,12,02,14.10
2006,09,25,12,03,14.10
2006,09,25,12,04,14.10
2006,09,25,12,05,14.10
2006,09,25,12,06,14.10
2006,09,25,12,07,14.10
2006,09,25,12,08,14.10
2006,09,25,12,09,14.10
2006,09,25,12,10,14.10
2006,09,25,12,11,14.10
2006,09,25,12,12,14.10
2006,09,25,12,13,14.10
2006,09,25,12,14,14.10
2006,09,25,12,15,14.60
2006,09,25,12,17,14.60
2006,09,25,12,18,14.60
2006,09,25,12,19,14.60
2006,09,25,12,20,14.60
2006,09,25,12,21,14.60
2006,09,25,12,22,14.60
2006,09,25,12,23,14.60
2006,09,25,12,24,14.60
2006,09,25,12,25,14.60
2006,09,25,12,26,15.20
2006,09,25,12,27,15.20
2006,09,25,12,28,15.20
2006,09,25,12,29,15.20
2006,09,25,12,30,15.20
2006,09,25,12,31,15.20
2006,09,25,12,32,15.20
2006,09,25,12,33,15.20
2006,09,25,12,34,15.20
2006,09,25,12,35,15.20
2006,09,25,12,36,15.20
2006,09,25,12,38,15.20
2006,09,25,12,39,15.20
2006,09,25,12,40,15.20
2006,09,25,12,41,15.20
2006,09,25,12,42,15.20
2006,09,25,12,43,15.20
2006,09,25,12,44,15.20
2006,09,25,12,45,15.20
2006,09,25,12,46,15.20
2006,09,25,12,47,15.20
2006,09,25,12,48,15.20
2006,09,25,12,49,15.10
2006,09,25,12,50,15.10
2006,09,25,12,51,15.10
2006,09,25,12,52,15.10
2006,09,25,12,53,15.10
2006,09,25,12,54,15.10
2006,09,25,12,55,15.10
2006,09,25,12,56,15.10
2006,09,25,12,57,15.10
2006,09,25,12,58,15.10
2006,09,25,12,59,15.10
2006,09,25,13,02,15.40
2006,09,25,13,03,15.40
2006,09,25,13,04,15.40
2006,09,25,13,05,15.40
2006,09,25,13,06,15.40
2006,09,25,13,08,15.40
2006,09,25,13,09,15.40
2006,09,25,13,10,15.40
2006,09,25,13,11,15.40
2006,09,25,13,12,15.40
2006,09,25,13,13,15.40
2006,09,25,13,14,15.40
2006,09,25,13,15,15.40
2006,09,25,13,16,15.40
2006,09,25,13,17,15.40
2006,09,25,13,18,15.40
2006,09,25,13,19,15.40
2006,09,25,13,20,15.40
2006,09,25,13,21,15.40
2006,09,25,13,22,15.40
2006,09,25,13,23,15.40
2006,09,25,13,24,15.40
2006,09,25,13,25,15.40
2006,09,25,13,26,15.40
2006,09,25,13,27,15.40
2006,09,25,13,28,15.40
2006,09,25,13,29,15.40
2006,09,25,13,30,15.40
2006,09,25,13,31,15.40
2006,09,25,13,32,15.40
2006,09,25,13,33,15.40
2006,09,25,13,34,15.40
2006,09,25,13,35,15.40
2006,09,25,13,36,15.40
2006,09,25,13,37,15.40
2006,09,25,13,38,15.40
2006,09,25,13,40,15.40
2006,09,25,13,41,14.60
2006,09,25,13,42,14.60
